Probability
0 3 0 0 0 0 0 0 0 0 0 0 0 0 0 0 0 0 0 0 0 0 0 0 0 0 0 0 0 0 0 0 0 0 0 0 0 0 0 0 0 0 0
0 0 0 0 0 0 0 0 0 0 0 0 0 0 0 0 0 0 0 0 0 0 0 0 0 0 0 0 0 0 0 0 0 0 0 0 0 0 0 0 0 0 0
0 0 0 0 0 0 0 0 0 0 0 0 0 0 0 0 0 0 0 0 0 0 0 0 0 0 0 0 0 0 0 0 0 0 0 0 0 0 0 0 0 0 0
0 0 0 0 0 0 0 0 0 0 0 0 0 0 0 0 0 0 0 0 0 0 0 0 0 0 0 0 0 0 0 0 0 0 0 0 0 0 0 0 0 0 3
0 0 0 0 0 0 0 0 0 0 0 0 0 0 0 0 0 0 0 0 0 0 0 0 0 0 0 0 0 0 0 0 0 0 0 0 0 0 0 0 0 0 3
0 0 0 0 0 0 0 0 0 0 0 0 0 0 0 0 0 0 0 0 0 0 0 0 0 0 0 0 0 0 0 0 0 0 0 0 0 0 0 0 0 0 0
0 0 0 0 0 0 0 0 0 0 0 0 0 0 0 0 0 0 0 0 0 0 0 0 0 0 0 0 0 0 0 0 0 0 0 0 0 0 0 0 0 0 0
0 0 0 0 0 0 0 0 0 0 0 0 0 0 0 0 0 0 0 0 0 0 0 0 0 0 0 0 0 0 0 0 0 0 0 0 0 0 0 0 0 0 3
3 0 0 0 0 0 0 0 0 0 0 0 0 0 0 0 0 0 0 0 0 0 0 0 0 0 0 0 0 0 0 0 0 0 0 0 0 0 0 0 0 0 3
3 0 0 0 0 0 0 0 0 0 0 0 0 0 0 0 0 0 0 0 0 0 0 0 0 0 0 0 0 0 0 0 0 0 0 0 0 0 0 0 0 0 3
0 0 0 0 0 0 0 0 0 0 0 0 0 0 0 0 0 0 0 0 0 0 0 0 0 0 0 0 0 0 0 0 0 0 0 0 0 0 0 0 0 0 3
0 0 0 0 0 0 0 0 0 0 0 0 0 0 0 0 0 0 0 0 0 0 0 0 0 0 0 0 0 0 0 0 0 0 0 0 0 0 0 0 0 3 3
0 0 0 0 0 0 0 0 0 0 0 0 0 0 0 0 0 0 0 0 0 0 0 0 0 0 0 0 0 0 0 0 0 0 0 0 0 0 0 0 3 3 3
0 0 0 0 0 0 0 0 0 0 0 0 0 0 0 0 0 0 0 0 0 0 0 0 0 0 0 0 0 0 0 0 0 0 0 0 0 0 0 0 0 0 0
0 0 0 0 0 0 0 0 0 0 0 0 0 0 0 0 0 0 0 0 0 0 0 0 0 0 0 0 0 0 0 0 0 0 0 0 0 0 0 0 0 0 0
0 0 0 0 0 0 0 0 0 0 0 0 0 0 0 0 0 0 0 0 0 0 0 0 0 0 0 0 0 0 0 0 0 0 0 0 0 0 0 0 0 0 0
0 0 0 0 0 0 0 0 0 0 0 0 0 0 0 0 0 0 0 0 0 0 0 0 0 0 0 0 0 0 0 0 0 0 0 0 0 0 0 0 0 0 0
0 0 0 0 0 0 0 0 0 0 0 0 0 0 0 0 0 0 0 0 0 0 0 0 0 0 0 0 0 0 0 0 0 0 0 0 0 0 0 0 0 0 0
0 0 0 0 0 0 0 0 0 0 0 0 0 0 0 0 0 0 0 0 0 0 0 0 0 0 0 0 0 0 0 0 0 0 0 0 0 0 0 0 0 0 0
0 0 0 0 0 0 0 0 0 0 0 0 0 0 0 0 0 0 0 0 0 0 0 0 0 0 0 0 0 0 0 0 0 0 0 0 0 0 0 0 0 0 0
0 0 0 0 0 0 0 0 0 0 0 0 0 0 0 0 0 0 0 0 0 0 0 0 0 0 0 0 0 0 0 0 0 0 0 0 0 0 0 0 0 0 0
0 0 0 0 0 0 0 0 0 0 0 0 0 0 0 0 0 0 0 0 0 0 0 0 0 0 0 0 0 0 0 0 0 0 0 0 0 0 0 0 0 0 0
0 0 0 0 0 0 0 0 0 0 0 0 0 0 0 0 0 0 0 0 0 0 0 0 0 0 0 0 0 0 0 0 0 0 0 0 0 0 0 0 0 0 0
0 0 0 0 0 0 0 0 0 0 0 0 0 0 0 0 0 0 0 0 0 0 0 0 0 0 0 0 0 0 0 0 0 0 0 0 0 0 0 0 0 0 0
0 0 0 0 0 0 0 0 0 0 0 0 0 0 0 0 0 0 0 0 0 0 0 0 0 0 0 0 0 0 0 0 0 0 0 0 0 0 0 0 0 0 0
0 0 0 0 0 0 0 0 0 0 0 0 0 0 0 0 0 0 0 0 0 0 0 0 0 0 0 0 0 0 0 0 0 0 0 0 0 0 0 0 0 0 0
Height
5780 5782 5783 5785 5786 5788 5789 5790 5791 5792 5793 5793 5794 5795 5796 5797 5798 5800 5800 5801 5802 5803 5804 5805 5807 5808 5809 5810 5811 5812 5813 5814 5815 5816 5817 5817 5818 5819 5819 5820 5820 5821 5821
5774 5776 5777 5779 5780 5782 5783 5784 5785 5786 5787 5788 5788 5789 5790 5791 5793 5794 5795 5796 5796 5797 5798 5799 5800 5802 5803 5804 5805 5807 5807 5808 5809 5810 5811 5811 5812 5812 5813 5814 5814 5815 5815
5767 5769 5771 5772 5774 5775 5776 5777 5779 5780 5780 5782 5782 5783 5784 5786 5787 5788 5789 5790 5791 5791 5792 5793 5794 5795 5796 5798 5799 5800 5801 5802 5803 5803 5804 5805 5805 5806 5807 5807 5807 5808 5808
5760 5762 5764 5765 5767 5768 5770 5771 5772 5773 5774 5775 5776 5777 5778 5779 5780 5781 5782 5783 5784 5785 5786 5787 5788 5789 5789 5791 5792 5793 5794 5795 5796 5796 5797 5798 5798 5799 5800 5800 5800 5801 5801
5753 5755 5757 5758 5760 5761 5762 5764 5765 5766 5768 5769 5770 5771 5772 5773 5774 5775 5776 5777 5778 5778 5779 5780 5781 5781 5782 5783 5784 5785 5786 5787 5788 5789 5790 5790 5791 5791 5792 5792 5793 5793 5793
5745 5747 5749 5751 5752 5753 5755 5756 5758 5759 5761 5762 5763 5764 5765 5766 5767 5768 5769 5770 5771 5771 5772 5773 5774 5774 5775 5776 5776 5777 5778 5779 5780 5781 5781 5782 5782 5783 5784 5784 5784 5785 5785
5737 5739 5741 5743 5744 5746 5747 5749 5750 5752 5753 5755 5756 5757 5758 5759 5760 5761 5762 5762 5763 5764 5765 5765 5766 5767 5767 5768 5768 5769 5769 5770 5770 5771 5772 5773 5774 5774 5775 5775 5776 5776 5776
5728 5731 5732 5734 5736 5738 5739 5741 5742 5744 5746 5747 5749 5749 5751 5752 5752 5753 5754 5755 5756 5756 5757 5757 5758 5758 5759 5759 5759 5759 5759 5760 5761 5762 5763 5764 5764 5765 5766 5766 5766 5766 5766
5719 5722 5724 5725 5727 5729 5731 5732 5734 5736 5738 5739 5740 5742 5743 5744 5745 5745 5746 5747 5747 5748 5749 5749 5749 5750 5750 5750 5750 5750 5749 5750 5751 5752 5753 5754 5754 5755 5756 5756 5756 5756 5756
5710 5712 5714 5716 5718 5720 5722 5724 5726 5728 5729 5731 5732 5733 5735 5736 5736 5737 5738 5738 5739 5739 5740 5740 5740 5740 5740 5740 5740 5739 5739 5739 5740 5741 5742 5743 5744 5745 5745 5746 5746 5746 5746
5700 5702 5704 5706 5708 5711 5713 5715 5716 5718 5720 5722 5723 5724 5725 5726 5727 5728 5729 5729 5729 5730 5730 5730 5730 5730 5730 5729 5729 5729 5728 5728 5729 5730 5731 5733 5734 5734 5735 5735 5735 5735 5735
5690 5692 5695 5697 5699 5701 5703 5705 5707 5709 5710 5712 5713 5714 5715 5716 5717 5718 5719 5719 5720 5720 5720 5720 5720 5720 5720 5719 5718 5718 5718 5717 5718 5719 5720 5721 5722 5723 5724 5724 5724 5724 5724
5680 5682 5685 5687 5689 5691 5693 5695 5697 5699 5700 5702 5703 5705 5705 5706 5707 5708 5709 5709 5709 5710 5710 5710 5709 5709 5709 5708 5707 5707 5707 5706 5707 5708 5709 5710 5711 5712 5712 5713 5713 5712 5712
5669 5672 5674 5677 5679 5681 5683 5685 5686 5688 5690 5691 5693 5694 5695 5696 5696 5697 5698 5698 5699 5699 5699 5699 5699 5698 5698 5697 5696 5696 5696 5695 5696 5697 5698 5698 5699 5700 5700 5701 5701 5700 5700
5657 5660 5663 5665 5668 5670 5672 5674 5675 5677 5679 5680 5681 5683 5684 5684 5685 5686 5686 5687 5688 5688 5689 5688 5688 5687 5686 5685 5685 5684 5684 5684 5684 5685 5686 5687 5687 5688 5688 5688 5688 5688 5688
5646 5648 5651 5653 5656 5658 5660 5662 5664 5666 5667 5668 5669 5671 5672 5673 5673 5674 5675 5675 5676 5677 5677 5677 5676 5675 5674 5673 5673 5673 5673 5673 5673 5673 5674 5674 5675 5675 5675 5676 5676 5675 5675
5634 5636 5639 5641 5643 5646 5648 5650 5652 5653 5655 5656 5657 5658 5659 5660 5661 5661 5662 5662 5663 5663 5664 5664 5663 5663 5662 5661 5661 5661 5661 5660 5660 5661 5661 5662 5662 5662 5662 5662 5662 5662 5662
5622 5625 5627 5629 5631 5633 5635 5637 5639 5641 5642 5643 5644 5645 5646 5647 5648 5648 5649 5649 5649 5650 5650 5651 5650 5650 5649 5649 5648 5648 5648 5648 5648 5648 5648 5649 5649 5648 5648 5648 5648 5648 5648
5610 5612 5614 5617 5619 5621 5622 5624 5626 5628 5629 5630 5631 5632 5633 5634 5634 5635 5635 5635 5636 5636 5636 5636 5637 5636 5636 5635 5635 5635 5634 5634 5634 5635 5635 5635 5635 5635 5635 5635 5634 5634 5634
5598 5600 5602 5604 5606 5608 5610 5611 5613 5614 5616 5617 5618 5618 5619 5620 5621 5621 5621 5621 5621 5622 5622 5622 5622 5622 5622 5621 5621 5621 5621 5621 5621 5621 5621 5621 5621 5621 5621 5621 5620 5620 5620
5585 5587 5589 5591 5593 5594 5596 5598 5599 5601 5602 5603 5604 5604 5605 5606 5606 5606 5607 5607 5607 5607 5607 5607 5607 5607 5608 5607 5607 5607 5607 5606 5606 5606 5607 5607 5607 5607 5606 5606 5606 5605 5605
5572 5574 5576 5578 5580 5581 5583 5584 5585 5587 5588 5589 5590 5590 5591 5591 5591 5591 5592 5592 5592 5593 5593 5593 5593 5593 5592 5592 5592 5592 5592 5592 5593 5593 5592 5592 5592 5592 5592 5592 5591 5591 5591
5559 5561 5563 5565 5566 5568 5569 5570 5571 5572 5574 5574 5575 5576 5576 5576 5576 5576 5577 5577 5577 5577 5577 5578 5577 5577 5577 5577 5577 5576 5576 5576 5577 5577 5577 5578 5577 5577 5577 5577 5576 5576 5575
5546 5548 5550 5551 5552 5554 5555 5556 5557 5558 5559 5560 5560 5561 5561 5561 5561 5561 5562 5562 5562 5562 5562 5562 5562 5562 5561 5561 5561 5561 5560 5561 5561 5561 5561 5562 5562 5562 5562 5561 5561 5560 5560
5534 5535 5537 5538 5539 5540 5541 5541 5542 5543 5544 5545 5545 5545 5545 5546 5546 5546 5546 5547 5547 5546 5546 5546 5546 5546 5545 5545 5545 5545 5545 5545 5546 5546 5546 5546 5547 5547 5547 5546 5545 5544 5544
5521 5522 5523 5524 5525 5526 5526 5527 5528 5529 5530 5530 5530 5530 5530 5530 5530 5530 5530 5530 5530 5530 5530 5530 5530 5530 5529 5529 5529 5529 5529 5529 5529 5530 5530 5530 5530 5530 5532 5531 5529 5528 5527
Wind_Speed
28 27 27 27 26 26 26 25 25 25 25 25 25 25 25 25 25 25 25 25 25 25 25 25 25 25 26 26 25 25 25 25 25 25 25 25 25 24 24 24 24 24 24
29 29 28 28 27 27 27 27 27 27 27 26 26 26 26 26 26 26 26 26 26 26 27 27 27 27 27 27 27 27 27 27 27 27 27 26 26 26 26 26 26 26 26
30 29 29 28 28 29 28 29 28 28 28 28 27 27 27 27 27 27 27 27 27 27 28 28 28 28 28 28 28 28 28 28 28 29 29 29 29 28 27 27 28 28 28
31 31 30 30 29 30 30 30 29 28 28 28 27 27 27 27 27 28 27 27 28 28 28 28 29 29 29 30 30 30 30 30 30 30 30 30 30 30 30 29 30 30 31
32 32 32 31 31 30 30 30 30 29 29 29 28 28 28 28 28 29 29 29 29 29 29 29 30 30 31 31 31 31 31 31 32 32 31 31 31 32 32 32 32 32 32
33 33 33 33 32 32 31 32 32 31 31 30 30 30 30 30 30 30 30 30 30 30 30 30 30 31 32 32 32 33 33 33 33 33 34 34 34 33 33 33 34 33 33
35 35 34 34 34 34 33 33 33 33 32 32 32 31 31 31 31 31 31 31 31 31 31 32 32 32 33 33 34 35 35 35 35 35 35 35 36 36 35 34 35 35 35
37 37 36 35 35 35 35 34 34 34 34 33 33 33 33 32 32 32 32 32 32 32 33 33 34 34 34 35 35 36 37 37 37 37 37 36 37 37 37 37 36 36 36
39 38 38 37 37 37 36 36 36 35 35 36 35 35 34 34 34 34 34 34 35 34 34 35 36 36 36 36 36 37 37 37 37 38 38 38 38 38 37 38 38 38 38
41 40 39 39 39 39 38 38 38 37 37 37 37 37 37 37 36 36 36 36 37 37 37 37 37 38 38 38 38 38 39 39 38 38 38 39 39 39 39 39 39 39 39
42 42 41 40 40 41 40 40 40 40 39 39 38 38 38 38 38 38 38 38 38 38 39 39 39 38 39 39 39 40 40 40 40 40 39 39 40 40 41 40 40 40 40
43 43 42 41 42 41 41 41 42 42 42 41 40 40 40 40 40 40 40 40 40 40 39 39 39 39 39 40 41 41 41 41 41 41 41 41 41 41 41 41 41 42 42
45 44 44 43 43 43 43 43 43 44 43 42 42 41 41 41 41 41 41 41 41 41 41 40 40 41 41 41 42 43 43 43 42 42 42 42 42 42 42 42 42 43 44
46 46 46 45 45 44 45 45 45 45 45 44 44 43 43 42 43 43 42 42 42 42 42 42 42 42 42 42 43 43 43 43 43 43 43 43 43 44 44 44 45 45 45
47 47 47 48 46 46 47 47 47 47 46 45 45 45 45 44 44 44 44 44 44 43 43 43 44 44 44 43 44 44 44 44 45 45 45 45 46 45 46 46 47 47 46
47 47 48 48 48 47 47 47 48 48 47 47 48 47 46 45 44 45 46 46 46 46 45 45 45 46 46 46 45 45 45 46 46 46 46 47 47 47 47 47 48 48 48
46 47 48 48 48 48 47 47 47 48 48 48 48 48 47 48 47 47 47 48 48 48 47 47 47 47 47 47 47 47 46 47 47 48 48 48 48 49 49 49 49 49 49
47 47 47 48 48 48 48 48 49 49 49 48 48 48 48 49 49 49 49 49 49 49 49 48 48 48 48 47 47 48 48 48 48 49 49 50 50 50 50 50 50 50 50
47 47 47 48 49 49 49 49 50 49 49 49 49 49 49 49 49 49 50 50 50 50 50 49 49 49 48 48 49 49 49 50 50 50 50 51 51 51 50 51 50 50 51
48 48 47 48 48 48 49 50 50 49 49 50 50 50 50 50 50 50 50 50 50 51 51 50 50 50 50 50 50 50 50 51 51 51 51 51 51 51 51 51 51 51 51
47 47 48 49 49 49 49 49 49 50 50 50 51 51 51 50 51 51 51 51 52 52 52 52 52 52 52 52 51 51 52 52 52 52 52 52 52 52 52 52 51 51 51
47 47 48 49 49 49 49 49 50 50 50 50 51 50 50 51 51 52 52 53 53 54 54 53 53 53 53 53 53 53 53 53 53 53 53 52 53 53 53 52 52 52 52
47 47 47 48 48 49 49 50 50 50 50 51 51 51 51 51 52 52 53 54 55 55 55 55 55 54 54 54 54 53 53 53 53 53 53 53 53 54 54 54 53 53 53
45 46 46 47 48 49 49 49 50 50 51 51 52 52 52 53 53 53 54 54 54 55 55 55 55 54 54 54 54 54 53 53 53 53 54 53 53 54 54 55 55 54 54
43 44 45 47 48 49 49 49 50 50 50 51 51 52 52 52 52 53 53 53 54 54 54 54 54 54 54 55 55 55 54 54 54 54 54 54 53 54 54 55 55 56 57
43 44 45 47 48 48 49 49 50 50 50 50 51 51 51 51 52 52 52 53 53 53 53 54 54 54 54 54 55 55 54 54 54 53 53 54 54 54 54 54 55 56 58
Wind_Direction
251 252 253 255 256 257 257 259 259 260 260 260 260 260 259 259 259 259 260 260 260 259 259 258 257 259 260 260 259 260 261 262 262 263 264 264 265 265 265 264 265 266 267
251 251 253 255 256 257 258 258 259 260 259 260 261 260 260 259 259 260 261 261 261 260 260 260 260 260 260 260 261 260 261 261 262 262 264 266 267 267 267 267 266 267 268
250 252 253 254 256 256 257 258 258 259 260 261 261 261 260 259 259 260 261 262 263 263 262 262 262 261 261 261 262 262 262 262 263 263 264 266 266 267 267 268 268 268 269
251 252 254 254 256 257 259 259 258 258 260 260 260 260 260 260 260 260 261 262 263 263 263 262 262 262 262 262 263 264 264 263 264 264 265 266 267 268 267 267 269 269 269
252 253 254 255 256 258 259 259 258 258 259 258 259 260 261 261 261 261 262 263 264 264 264 263 264 264 264 264 264 265 265 265 264 265 265 266 267 268 268 267 268 270 271
252 253 254 255 256 257 257 257 257 257 258 258 259 260 261 262 262 262 263 264 264 265 264 264 265 266 267 266 266 266 266 266 265 265 266 267 268 268 269 269 269 270 271
251 253 255 255 255 256 257 257 256 257 258 258 259 260 262 262 262 263 264 264 265 265 265 264 265 267 268 269 269 268 267 266 266 265 266 267 269 270 270 271 270 270 271
252 253 255 255 256 256 256 256 256 257 257 258 260 260 261 262 263 263 264 265 266 266 266 265 266 267 269 270 271 271 269 267 265 265 265 266 268 269 270 271 271 271 272
252 253 254 255 256 255 255 255 255 256 257 259 260 261 261 261 263 264 264 265 266 266 266 266 267 268 270 271 272 271 270 268 266 265 265 266 267 269 270 271 272 273 273
251 252 253 254 254 255 255 255 256 256 258 260 261 261 262 262 263 264 265 266 266 267 267 267 268 270 271 271 272 271 271 269 267 266 266 266 268 270 271 272 273 273 274
251 252 253 253 254 255 256 257 258 257 258 260 261 262 263 263 264 265 266 267 267 268 268 269 270 270 271 272 273 272 271 268 267 266 266 266 268 270 272 273 273 274 275
251 253 252 253 254 255 256 257 258 259 260 261 262 263 264 264 264 265 266 267 268 269 269 270 271 271 272 273 272 271 270 269 267 266 266 267 269 271 272 273 274 275 276
252 253 253 254 255 256 257 258 259 260 261 262 262 263 264 265 266 266 266 267 268 269 270 271 271 273 273 274 273 271 271 270 268 266 266 268 269 271 273 274 275 276 277
252 254 254 255 256 256 257 258 259 260 261 262 263 263 264 265 266 266 267 267 267 269 269 270 272 273 274 275 273 272 271 270 268 267 268 269 270 271 273 274 275 277 277
252 254 255 256 256 257 258 259 259 260 261 262 262 263 264 265 266 267 268 268 269 268 269 270 271 272 273 274 273 272 271 270 269 268 269 270 271 272 273 275 276 276 277
252 254 255 256 256 257 258 259 259 260 261 262 263 264 264 265 267 267 267 267 268 269 269 271 272 274 274 274 273 271 271 271 270 269 270 271 271 272 272 274 276 276 276
254 256 256 256 256 257 258 259 260 261 262 263 264 264 265 265 267 268 268 268 268 269 270 271 272 273 273 273 273 272 271 271 270 269 270 271 271 272 272 274 275 275 276
255 257 257 257 257 257 258 259 260 261 262 263 263 264 264 266 267 268 268 268 269 270 271 271 272 272 272 272 272 272 272 271 270 269 269 270 271 272 273 274 274 275 276
255 256 257 258 257 257 258 259 261 261 263 264 264 265 265 266 268 269 269 269 269 269 271 271 271 271 272 272 272 272 272 272 271 269 270 271 271 272 273 273 274 275 275
255 256 257 258 258 259 259 260 261 262 263 264 265 266 266 267 268 269 269 269 269 270 270 271 271 270 271 272 272 272 273 272 272 270 270 271 272 272 273 273 274 275 276
257 257 257 259 259 260 261 261 262 262 264 265 265 266 266 267 268 269 269 269 269 270 271 271 270 271 271 272 272 273 273 272 272 271 270 271 272 271 271 273 274 275 276
257 258 258 259 259 260 261 262 263 263 264 265 266 266 266 267 267 267 268 268 269 270 270 271 271 271 271 271 272 273 273 272 272 271 271 271 271 271 271 272 273 274 275
258 259 259 259 259 260 261 262 264 265 265 266 266 266 266 267 267 267 267 268 269 269 270 270 271 270 271 271 271 272 272 273 272 271 270 270 270 271 271 272 273 274 275
259 259 260 260 260 260 261 263 264 265 266 267 267 267 267 267 267 267 267 268 269 270 270 271 271 270 270 270 271 271 272 272 272 271 270 270 270 271 272 273 274 274 276
260 260 261 261 260 261 262 263 264 265 266 267 267 267 268 268 268 268 268 268 269 270 270 270 271 270 270 270 271 271 272 272 272 271 271 271 271 271 272 273 274 275 276
260 261 262 262 261 262 263 264 265 265 267 267 267 267 267 267 268 268 268 269 269 269 270 270 271 271 270 271 271 272 272 272 273 272 271 271 271 272 272 274 275 276 277